[[{"header":{"parameterUnit":"m.s-1","parameterCategory":1,"la1":30.2991,"la2":30.254,"lo1":-89.0895,"lo2":-89.0444,"dy":0.0017,"dx":0.0017,"nx":28,"ny":28,"refTime":"2025-11-21T09:00:00:Z","depth":0,"parameterNumber":2,"parameterNumberName":"U-component_of_WINDS"},"data":[0,0,0,0,0,0,0,0,0,0,0,0,0,0,0,0,0,0,0,0,0,0,0,0,0,0,0,0,0,0,0,0,0,0,0,0,0,0,0,0,0,0,0,0,0,0,0,0,0,0,0,0,0,0,0,0,0,0,2.1014,2.1015,0,2.108,2.108,2.1081,2.1052,2.105,2.1048,2.1047,2.1116,2.1119,2.1122,0,0,0,0,0,0,0,0,0,0,0,0,0,2.0865,2.0868,2.1014,2.1015,2.1016,2.108,2.108,2.1081,2.1052,2.105,2.1048,2.1046,2.1114,2.1118,2.1122,0,0,0,0,0,0,0,0,0,0,0,0,0,2.093,2.0869,2.1014,2.1009,2.1009,2.1079,2.1081,2.1082,2.1052,2.105,2.1047,2.1045,2.1113,2.1118,2.1123,2.1203,0,0,2.1138,2.1141,0,0,0,0,0,0,0,0,2.0927,2.0936,2.1009,2.1009,2.1009,2.1055,2.1053,2.1122,2.1053,2.1036,2.1047,2.1044,2.1098,2.1104,2.1121,2.1206,2.1209,2.1139,2.1142,2.1144,2.1145,0,0,0,0,0,0,0,2.0922,2.0933,2.104,2.101,2.101,2.1004,2.101,2.1066,2.108,2.1037,2.1035,2.1043,2.1097,2.1117,2.1123,2.121,2.1139,2.1143,2.1146,2.1148,2.1365,2.1368,0,0,0,0,0,0,2.0918,2.0929,2.1038,2.1042,2.0961,2.1008,2.1016,2.1043,2.1079,2.1082,2.1045,2.1042,2.1109,2.1117,2.1125,2.1221,2.1144,2.1149,2.1152,2.1362,2.1366,2.1369,0,0,0,0,0,0,2.0914,2.0928,2.1035,2.0985,2.0998,2.1013,2.1044,2.1045,2.1065,2.1085,2.1087,2.1062,2.1108,2.1118,2.1184,2.1223,2.1151,2.1156,2.1359,2.1363,2.1367,2.1415,0,0,0,0,0,0,2.091,2.0927,2.0957,2.0986,2.1001,2.1093,2.1047,2.1048,2.1073,2.1069,2.1102,2.1105,2.1106,2.1177,2.1189,2.1229,2.1159,2.1356,2.1361,2.1366,2.141,2.142,2.1429,0,0,0,0,0,2.0905,2.0968,2.0958,2.0972,2.1039,2.1095,2.1104,2.1104,2.1077,2.1107,2.112,2.1104,2.1217,2.1184,2.1197,2.1239,2.1353,2.1359,2.1365,2.1405,2.1418,2.1428,0,0,0,0,0,0,2.0943,2.0971,2.0961,2.1035,2.1063,2.109,2.1128,2.1117,2.1153,2.1148,2.1147,2.1155,2.1223,2.1238,2.12,2.1319,2.1281,2.129,2.1307,2.1319,2.1328,2.1323,2.1164,0,0,0,0,0,2.096,2.1002,2.1025,2.1088,2.1102,2.1113,2.1138,2.1135,2.1164,2.1176,2.1194,2.1223,2.1265,2.1293,2.1333,2.1412,2.1419,2.1448,2.1457,2.1465,2.1473,2.1516,2.1529,2.1389,2.1389,2.1389,0,0,2.0995,2.1016,2.1043,2.1096,2.1117,2.1162,2.1123,2.1172,2.1205,2.1183,2.1246,2.1261,2.1293,2.1366,2.1399,2.1381,2.1513,2.1473,2.1479,2.1482,2.1524,2.1537,2.1549,2.1393,2.1392,2.1392,0,0,2.1082,2.1102,2.1157,2.1179,2.1211,2.1218,2.1231,2.126,2.1269,2.1332,2.1317,2.1357,2.143,2.1454,2.1475,2.1572,2.1559,2.1586,2.1635,2.1677,2.1688,2.1698,2.1733,2.1745,2.1593,2.1594,2.1594,0,2.1122,2.1188,2.1186,2.1236,2.1261,2.1243,2.1299,2.132,2.1365,2.1382,2.1361,2.1452,2.1472,2.1551,2.1574,2.1593,2.1608,2.1582,2.1687,2.1697,2.1706,2.1739,2.1752,2.1597,2.1596,2.1596,2.1596,0,2.1235,2.1281,2.1322,2.1365,2.1393,2.1446,2.1454,2.1483,2.1479,2.1488,2.1553,2.1578,2.1622,2.1641,2.1637,2.1719,2.1707,2.1686,2.1648,2.1722,2.1753,2.1766,2.1601,2.16,2.1599,2.1598,0,0,2.1347,2.1389,2.1403,2.1423,2.1458,2.1494,2.1546,2.159,2.1615,2.1647,2.1691,2.1753,2.1735,2.1759,2.1758,2.1795,2.1871,2.177,2.1771,2.1788,2.1963,2.1978,2.1993,2.1862,2.1865,2.1867,2.196,0,2.1436,2.1527,2.1528,2.1612,2.1655,2.1639,2.1685,2.1712,2.1723,2.1761,2.1773,2.1817,2.1789,2.1804,2.184,2.1854,2.1906,2.1847,2.1904,2.1906,2.1896,2.2009,2.2025,2.2112,2.1973,2.1975,2.1976,0,2.1552,2.1587,2.1676,2.1705,2.1723,2.1764,2.1804,2.1841,2.1872,2.1877,2.1905,2.1898,2.1952,2.1913,2.1988,2.1948,2.1971,2.1982,2.1985,2.199,2.1945,2.2017,2.214,2.2153,2.1995,2.1994,2.1992,0,2.1625,2.1694,2.1756,2.1773,2.1809,2.1838,2.1855,2.1883,2.1909,2.1944,2.1961,2.2003,2.2026,2.2058,2.2063,2.2034,2.2139,2.21,2.2145,2.2145,2.2167,2.2166,2.2295,2.2183,2.2183,2.2182,2.2182,0,2.1724,2.1779,2.1789,2.1827,2.1888,2.1889,2.195,2.1964,2.1989,2.203,2.2019,2.2058,2.2063,2.2103,2.2108,2.2169,2.218,2.2186,2.2186,2.2187,2.2186,2.2201,2.2195,2.2186,2.2185,2.2185,2.2184,0,2.1815,2.1824,2.1891,2.1919,2.1928,2.1972,2.1996,2.2033,2.2043,2.2095,2.2107,2.2122,2.2169,2.2178,2.2234,2.2237,2.231,2.2305,2.23,2.2299,2.2343,2.2339,2.2487,2.2507,2.2382,2.2383,2.2384,0,2.1878,2.192,2.1953,2.1979,2.1997,2.204,2.2067,2.207,2.2098,2.2136,2.2169,2.2215,2.2251,2.2327,2.2344,2.2386,2.2382,2.2431,2.2388,2.2387,2.2382,2.2379,2.2384,2.2439,2.244,2.2441,2.2442,0,2.1988,2.1991,2.2029,2.207,2.2102,2.2134,2.2165,2.2187,2.2195,2.2227,2.2275,2.2304,2.236,2.2406,2.2449,2.2466,2.2456,2.2456,2.2468,2.2469,2.2464,2.2467,2.2322,2.2452,2.2451,2.245,2.245,2.2449,2.2067,2.2103,2.2132,2.2176,2.2199,2.2228,2.2264,2.2279,2.2318,2.2364,2.2364,2.2416,2.2447,2.2503,2.2523,2.2565,2.2549,2.2567,2.2572,2.2576,2.258,2.2458,2.2572,2.2572,2.2572,2.2572,2.2572,0,2.2176,2.2194,2.2235,2.2278,2.2312,2.2299,2.2333,2.2363,2.2409,2.2438,2.2474,2.2529,2.2574,2.2594,2.2638,2.2667,2.2664,2.2679,2.2677,2.2681,2.2592,2.2576,2.2681,2.2681,2.2681,2.2681,2.2681,2.2681,2.2237,2.2298,2.2304,2.2377,2.2395,2.2446,2.2466,2.2493,2.2516,2.2578,2.2615,2.2628,2.2654,2.27,2.274,2.2745,2.2762,2.2779,2.2782,2.2698,2.2687,2.2676,2.2662,2.2783,2.2783,2.2867,2.2868,2.2868]},{"header":{"parameterUnit":"m.s-1","parameterCategory":1,"la1":30.2991,"la2":30.254,"lo1":-89.0895,"lo2":-89.0444,"dy":0.0017,"dx":0.0017,"nx":28,"ny":28,"refTime":"2025-11-21T09:00:00:Z","depth":0,"parameterNumber":3,"parameterNumberName":"V-component_of_WINDS"},"data":[0,0,0,0,0,0,0,0,0,0,0,0,0,0,0,0,0,0,0,0,0,0,0,0,0,0,0,0,0,0,0,0,0,0,0,0,0,0,0,0,0,0,0,0,0,0,0,0,0,0,0,0,0,0,0,0,0,0,0.9391,0.9392,0,0.9431,0.9432,0.9432,0.9444,0.9444,0.9444,0.9444,0.9482,0.9483,0.9485,0,0,0,0,0,0,0,0,0,0,0,0,0,0.9323,0.9324,0.9391,0.9392,0.9392,0.9431,0.9432,0.9432,0.9444,0.9444,0.9444,0.9443,0.9482,0.9483,0.9485,0,0,0,0,0,0,0,0,0,0,0,0,0,0.9357,0.9325,0.9391,0.9403,0.9404,0.9431,0.9432,0.9432,0.9444,0.9444,0.9444,0.9443,0.9481,0.9483,0.9485,0.9502,0,0,0.949,0.9491,0,0,0,0,0,0,0,0,0.9355,0.9359,0.9401,0.9402,0.9404,0.9432,0.9422,0.9456,0.9444,0.9429,0.9444,0.9443,0.9466,0.9469,0.9477,0.9504,0.9505,0.9491,0.9492,0.9493,0.9493,0,0,0,0,0,0,0,0.9353,0.9358,0.9407,0.9401,0.9403,0.9405,0.941,0.9428,0.9448,0.943,0.9431,0.9436,0.9467,0.9475,0.9478,0.9506,0.9491,0.9492,0.9493,0.9494,0.9548,0.9548,0,0,0,0,0,0,0.9349,0.9356,0.9406,0.9408,0.9378,0.9407,0.9412,0.9424,0.9448,0.9452,0.9436,0.9436,0.9472,0.9476,0.9479,0.95,0.9492,0.9494,0.9495,0.9547,0.9548,0.9548,0,0,0,0,0,0,0.9347,0.9353,0.9404,0.9382,0.9389,0.9408,0.9421,0.9424,0.9433,0.9453,0.9456,0.9441,0.9472,0.9477,0.9496,0.9502,0.9495,0.9497,0.9547,0.9547,0.9548,0.9543,0,0,0,0,0,0,0.9345,0.9352,0.936,0.9382,0.939,0.9421,0.9422,0.9425,0.9436,0.9437,0.9459,0.9462,0.9472,0.9493,0.9498,0.9504,0.9498,0.9546,0.9547,0.9548,0.9543,0.9543,0.9544,0,0,0,0,0,0.9343,0.9356,0.936,0.9366,0.94,0.9421,0.9426,0.9438,0.9437,0.9444,0.9456,0.9461,0.95,0.9495,0.95,0.9507,0.9546,0.9547,0.9548,0.9543,0.9543,0.9544,0,0,0,0,0,0,0.9333,0.936,0.9364,0.9386,0.9401,0.9423,0.9433,0.9438,0.9454,0.9454,0.9468,0.9473,0.9491,0.9501,0.9495,0.9525,0.9523,0.9525,0.9518,0.9518,0.9519,0.9516,0.95,0,0,0,0,0,0.9334,0.935,0.9372,0.9389,0.9397,0.9413,0.9423,0.9431,0.9448,0.9454,0.9468,0.9483,0.9499,0.9509,0.9525,0.9544,0.9548,0.9551,0.9552,0.9552,0.9554,0.9564,0.9565,0.9551,0.9551,0.9551,0,0,0.9335,0.9351,0.9361,0.9387,0.9401,0.9416,0.9419,0.9435,0.9447,0.9457,0.9476,0.9487,0.9504,0.9524,0.9533,0.9533,0.9558,0.9553,0.9553,0.9555,0.9565,0.9566,0.9567,0.9551,0.9551,0.9551,0,0,0.9345,0.936,0.9375,0.9388,0.9408,0.9419,0.9423,0.9444,0.9452,0.9471,0.9479,0.9492,0.9519,0.9531,0.9541,0.9555,0.956,0.956,0.9562,0.9572,0.9573,0.9574,0.9579,0.958,0.9561,0.9561,0.9561,0,0.9344,0.9369,0.9382,0.9399,0.941,0.9419,0.9435,0.9447,0.947,0.9477,0.9477,0.9511,0.9523,0.9545,0.9548,0.9556,0.956,0.9557,0.9572,0.9573,0.9574,0.9579,0.9581,0.9561,0.9561,0.9561,0.9561,0,0.9367,0.9383,0.9393,0.9417,0.9429,0.9444,0.9459,0.947,0.9476,0.9487,0.9506,0.9522,0.954,0.9546,0.9553,0.9569,0.9568,0.957,0.9569,0.9576,0.958,0.9582,0.956,0.9561,0.9561,0.9561,0,0,0.9373,0.9403,0.9406,0.9417,0.9439,0.9452,0.9467,0.9486,0.9495,0.951,0.9523,0.9545,0.9547,0.9558,0.9566,0.9574,0.9584,0.9575,0.9575,0.9576,0.9602,0.9601,0.9602,0.9587,0.9587,0.9588,0.96,0,0.9386,0.9415,0.9427,0.945,0.9466,0.9475,0.9488,0.9503,0.9513,0.9526,0.9537,0.9553,0.9554,0.956,0.9569,0.9581,0.9589,0.958,0.9598,0.9599,0.9594,0.9605,0.9604,0.9615,0.9602,0.9603,0.9603,0,0.9406,0.9422,0.9447,0.9467,0.9474,0.9486,0.9503,0.9517,0.9533,0.9539,0.9551,0.9559,0.9574,0.9572,0.9593,0.9587,0.9595,0.9601,0.9602,0.9604,0.9601,0.9607,0.9619,0.9621,0.9606,0.9605,0.9605,0,0.9407,0.9436,0.9454,0.9463,0.9486,0.9494,0.9504,0.9521,0.9531,0.9546,0.9553,0.9569,0.9578,0.959,0.9601,0.9598,0.9621,0.962,0.9627,0.9626,0.9631,0.9631,0.9644,0.9636,0.9636,0.9636,0.9636,0,0.9421,0.9436,0.9455,0.9467,0.9483,0.9496,0.9512,0.9522,0.9536,0.9549,0.9557,0.9569,0.9583,0.9596,0.9605,0.9621,0.9625,0.963,0.9632,0.9629,0.9629,0.9635,0.9634,0.9637,0.9636,0.9636,0.9636,0,0.9426,0.944,0.9461,0.9481,0.9487,0.9498,0.9515,0.9526,0.9536,0.9552,0.9557,0.9572,0.9588,0.96,0.9621,0.9626,0.9643,0.9646,0.9638,0.9639,0.9645,0.9644,0.9663,0.9666,0.9656,0.9656,0.9656,0,0.9434,0.9446,0.9468,0.9477,0.9487,0.9503,0.9513,0.9526,0.9536,0.9555,0.9564,0.958,0.9594,0.9619,0.9631,0.9647,0.965,0.9655,0.9652,0.9649,0.9649,0.9649,0.965,0.9656,0.9656,0.9656,0.9656,0,0.9446,0.9452,0.9468,0.9485,0.9498,0.9512,0.9526,0.9533,0.9548,0.956,0.9576,0.9587,0.9608,0.9624,0.9641,0.965,0.9655,0.9656,0.9659,0.9656,0.9651,0.9654,0.9639,0.9656,0.9656,0.9656,0.9656,0.9656,0.9453,0.9464,0.9481,0.9497,0.951,0.9523,0.9534,0.9545,0.956,0.9578,0.9584,0.9601,0.9616,0.9639,0.9649,0.9661,0.9661,0.9665,0.9666,0.9666,0.9666,0.9649,0.9664,0.9664,0.9664,0.9664,0.9664,0,0.9466,0.9477,0.9492,0.9512,0.9525,0.9529,0.9545,0.9555,0.957,0.9584,0.9598,0.9616,0.9632,0.9645,0.9661,0.9669,0.9671,0.9672,0.9672,0.9674,0.9665,0.9662,0.967,0.967,0.967,0.967,0.967,0.967,0.9474,0.9492,0.95,0.9524,0.9535,0.9552,0.9561,0.9572,0.9583,0.9604,0.9617,0.9626,0.964,0.9656,0.967,0.9674,0.9679,0.968,0.9684,0.9675,0.9675,0.9674,0.9671,0.9681,0.9681,0.9691,0.9691,0.9691]}]]